Location: *
(2.5500°S, 65.9667°W)
Time: 06:05:56
(UTC+00:00)

Tiros 1 despin weight - Pass Details

Date: 19 April 2024
Orbit: 578 x 621 km, 48.2° (Epoch: 25 May)

Event Time Altitude Azimuth Distance (km) Brightness Sun altitude
Rises 02:11:45 0° 330° (NNW) 2,878 - -56.3°
Reaches altitude 10° 02:14:07 10° 335° (NNW) 1,972 - -56.9°
Maximum altitude 02:18:32 51° 51° (NE) 769 - -57.9°
Drops below altitude 10° 02:22:55 10° 127° (SE) 1,963 - -59.0°
Sets 02:25:15 0° 132° (SE) 2,863 - -59.5°
